Moses Lake, Washington, United States (98837)
Lat: 47.13N, Lon: 119.28W
Wx Zone: WAZ034
Local Info
Past Weather Observations for Sunday, May 1, 2016

NOTE: This archive is for the closest National Weather Service station to Moses Lake. Information may differ from the station used for current weather conditions.

Click here for Long-term Archive

Time Weather Temperature Dewpoint Humidity Pressure Winds Precip Visibility
23:52
Clear
48°F / 9°C 43°F / 6°C 82% 30.04 in
(1017 mb)
NNW 6.9 mph
(NNW 11 kph)
- 10SM
22:52
Clear
52°F / 11°C 43°F / 6°C 72% 30.04 in
(1017 mb)
NNE 4.6 mph
(NNE 7 kph)
- 10SM
21:52
Clear
54°F / 12°C 43°F / 6°C 67% 30.04 in
(1017 mb)
N 6.9 mph
(N 11 kph)
- 10SM
20:52
Clear
57°F / 14°C 43°F / 6°C 59% 30.04 in
(1017 mb)
N 6.9 mph
(N 11 kph)
- 10SM
19:52
Clear
66°F / 19°C 41°F / 5°C 40% 30.04 in
(1017 mb)
Calm - 10SM
18:52
Clear
72°F / 22°C 39°F / 4°C 31% 30.01 in
(1016 mb)
SE 4.6 mph
(SE 7 kph)
- 10SM
17:52
Clear
75°F / 24°C 37°F / 3°C 25% 30.04 in
(1017 mb)
ENE 6.9 mph
(ENE 11 kph)
- 10SM
16:52
Clear
77°F / 25°C 36°F / 2°C 22% 30.04 in
(1017 mb)
E 12.7 mph
(E 20 kph)
- 10SM
15:52
Clear
79°F / 26°C 36°F / 2°C 21% 30.04 in
(1017 mb)
ENE 12.7 mph
(ENE 20 kph)
- 10SM
14:52
Clear
79°F / 26°C 34°F / 1°C 20% 30.06 in
(1018 mb)
E 10.4 mph
(E 17 kph)
- 10SM
13:52
Clear
79°F / 26°C 36°F / 2°C 21% 30.09 in
(1019 mb)
ENE 17.3 mph
(ENE 28 kph)
- 10SM
12:52
Clear
77°F / 25°C 34°F / 1°C 21% 30.09 in
(1019 mb)
NE 12.7 mph
(NE 20 kph)
- 10SM
11:52
Clear
75°F / 24°C 32°F / 0°C 21% 30.12 in
(1020 mb)
NE 15 mph
(NE 24 kph)
- 10SM
10:52
Clear
73°F / 23°C 37°F / 3°C 27% 30.15 in
(1021 mb)
ENE 9.2 mph
(ENE 15 kph)
- 10SM
09:52
Clear
72°F / 22°C 39°F / 4°C 31% 30.18 in
(1022 mb)
Variable 4.6 mph
(Variable 7 kph)
- 10SM
08:52
Clear
66°F / 19°C 45°F / 7°C 46% 30.21 in
(1023 mb)
N 6.9 mph
(N 11 kph)
- 10SM
07:52
Clear
61°F / 16°C 45°F / 7°C 55% 30.24 in
(1024 mb)
NNE 9.2 mph
(NNE 15 kph)
- 10SM
06:52
Clear
55°F / 13°C 43°F / 6°C 63% 30.24 in
(1024 mb)
N 9.2 mph
(N 15 kph)
- 10SM
05:52
Clear
52°F / 11°C 43°F / 6°C 72% 30.24 in
(1024 mb)
N 10.4 mph
(N 17 kph)
- 10SM
04:52
Clear
46°F / 8°C 41°F / 5°C 82% 30.21 in
(1023 mb)
N 6.9 mph
(N 11 kph)
- 10SM
03:52
Clear
46°F / 8°C 43°F / 6°C 87% 30.21 in
(1023 mb)
N 8.1 mph
(N 13 kph)
- 10SM
02:52
Clear
46°F / 8°C 43°F / 6°C 87% 30.24 in
(1024 mb)
NNE 4.6 mph
(NNE 7 kph)
- 10SM
01:52
Clear
48°F / 9°C 45°F / 7°C 87% 30.21 in
(1023 mb)
NE 5.8 mph
(NE 9 kph)
- 10SM
00:52
Clear
50°F / 10°C 45°F / 7°C 82% 30.24 in
(1024 mb)
N 6.9 mph
(N 11 kph)
- 10SM
Time Weather Temperature Dewpoint Humidity Pressure Winds Precip Visibility


Weather for websites

WeatherForYou.com, LLC is not responsible for any damages or problems caused by this service. Current weather conditions are obtained from the closest station including government and personal stations which may have varying degrees of accuracy. Weather forecasts are derived from the NOAA NDFD. Like all things, this site belongs to Jesus Christ... He just trusts us to maintain it. If you have any questions or comments email webmaster@weatherforyou.com

Copyright © 2016, WeatherForYou.com LLC. All rights reserved.